TimeMDT,TemperatureF,Dew PointF,Humidity,Sea Level PressureIn,VisibilityMPH,Wind Direction,Wind SpeedMPH,Gust SpeedMPH,PrecipitationIn,Events,Conditions,WindDirDegrees,DateUTC
12:15 AM,50.0,42.8,76,30.58,10.0,WSW,10.4,18.4,N/A,,Clear,240,2013-07-18 06:15:00
12:34 AM,50.0,42.8,76,30.58,10.0,SW,11.5,21.9,N/A,,Clear,220,2013-07-18 06:34:00
12:55 AM,48.2,41.0,76,30.57,10.0,SW,11.5,21.9,N/A,,Clear,230,2013-07-18 06:55:00
1:15 AM,46.4,41.0,81,30.57,10.0,WSW,10.4,20.7,N/A,,Clear,240,2013-07-18 07:15:00
1:35 AM,46.4,41.0,81,30.56,10.0,WSW,8.1,19.6,N/A,,Clear,240,2013-07-18 07:35:00
1:55 AM,46.4,42.8,87,30.56,10.0,WSW,8.1,17.3,N/A,,Clear,240,2013-07-18 07:55:00
2:14 AM,46.4,41.0,81,30.56,10.0,WSW,9.2,18.4,N/A,,Clear,240,2013-07-18 08:14:00
2:35 AM,44.6,42.8,93,30.55,10.0,SW,10.4,18.4,N/A,,Clear,230,2013-07-18 08:35:00
2:55 AM,44.6,42.8,93,30.54,10.0,West,10.4,18.4,N/A,,Clear,260,2013-07-18 08:55:00
3:14 AM,44.6,42.8,93,30.54,10.0,WSW,9.2,23.0,N/A,,Clear,250,2013-07-18 09:14:00
3:35 AM,44.6,42.8,93,30.54,10.0,WSW,10.4,20.7,N/A,,Clear,240,2013-07-18 09:35:00
3:55 AM,44.6,42.8,93,30.54,5.0,WSW,10.4,18.4,N/A,,Mostly Cloudy,240,2013-07-18 09:55:00
4:15 AM,44.6,42.8,93,30.54,1.0,WSW,10.4,20.7,N/A,,Overcast,240,2013-07-18 10:15:00
4:35 AM,44.6,42.8,93,30.54,0.5,WSW,9.2,16.1,N/A,Fog,Fog,250,2013-07-18 10:35:00
4:55 AM,44.6,42.8,93,30.54,0.5,WSW,9.2,18.4,N/A,Fog,Fog,240,2013-07-18 10:55:00
5:15 AM,44.6,42.8,93,30.54,0.5,SW,8.1,20.7,N/A,Fog,Fog,230,2013-07-18 11:15:00
5:35 AM,44.6,42.8,93,30.54,0.5,West,9.2,16.1,N/A,Fog,Fog,260,2013-07-18 11:35:00
5:55 AM,44.6,42.8,93,30.54,0.5,SW,9.2,19.6,N/A,Fog,Fog,220,2013-07-18 11:55:00
6:15 AM,44.6,42.8,93,30.54,0.8,WSW,6.9,18.4,N/A,,Overcast,240,2013-07-18 12:15:00
6:35 AM,44.6,42.8,93,30.54,7.0,SW,10.4,19.6,N/A,,Scattered Clouds,220,2013-07-18 12:35:00
6:55 AM,44.6,42.8,93,30.56,7.0,WSW,6.9,-,N/A,,Clear,250,2013-07-18 12:55:00
7:15 AM,44.6,42.8,93,30.56,5.0,WSW,6.9,-,N/A,,Scattered Clouds,240,2013-07-18 13:15:00
7:34 AM,44.6,42.8,93,30.56,7.0,West,9.2,-,N/A,,Clear,270,2013-07-18 13:34:00
7:55 AM,46.4,42.8,87,30.56,10.0,WSW,6.9,-,N/A,,Clear,250,2013-07-18 13:55:00
8:15 AM,46.4,44.6,93,30.56,10.0,WSW,6.9,-,N/A,,Clear,240,2013-07-18 14:15:00
8:35 AM,48.2,44.6,87,30.56,10.0,West,6.9,-,N/A,,Clear,260,2013-07-18 14:35:00
8:55 AM,51.8,44.6,76,30.56,10.0,West,9.2,-,N/A,,Clear,270,2013-07-18 14:55:00
9:15 AM,53.6,46.4,77,30.56,10.0,West,8.1,-,N/A,,Clear,260,2013-07-18 15:15:00
9:34 AM,53.6,44.6,72,30.56,10.0,WSW,8.1,-,N/A,,Clear,240,2013-07-18 15:34:00
9:55 AM,55.4,44.6,67,30.56,10.0,West,6.9,-,N/A,,Clear,270,2013-07-18 15:55:00
10:15 AM,59.0,46.4,63,30.56,10.0,West,6.9,-,N/A,,Clear,270,2013-07-18 16:15:00
10:34 AM,60.8,46.4,59,30.56,10.0,WNW,6.9,-,N/A,,Clear,290,2013-07-18 16:34:00
10:55 AM,60.8,44.6,55,30.56,10.0,West,5.8,-,N/A,,Clear,280,2013-07-18 16:55:00
11:15 AM,62.6,46.4,55,30.56,10.0,West,4.6,-,N/A,,Clear,280,2013-07-18 17:15:00
11:34 AM,64.4,46.4,52,30.57,10.0,Calm,Calm,-,N/A,,Clear,0,2013-07-18 17:34:00
11:55 AM,64.4,44.6,49,30.56,10.0,Calm,Calm,-,N/A,,Clear,0,2013-07-18 17:55:00
12:15 PM,64.4,44.6,49,30.56,10.0,ENE,4.6,-,N/A,,Clear,70,2013-07-18 18:15:00
12:35 PM,69.8,46.4,43,30.56,10.0,NE,6.9,-,N/A,,Scattered Clouds,50,2013-07-18 18:35:00
12:55 PM,69.8,46.4,43,30.56,10.0,ENE,5.8,9.2,N/A,,Scattered Clouds,60,2013-07-18 18:55:00
1:14 PM,71.6,46.4,41,30.55,10.0,ENE,9.2,16.1,N/A,,Scattered Clouds,60,2013-07-18 19:14:00
1:35 PM,73.4,46.4,38,30.54,10.0,ENE,12.7,18.4,N/A,Thunderstorm,Clear,70,2013-07-18 19:35:00
1:53 PM,75.2,50.0,41,30.54,10.0,ENE,9.2,17.3,N/A,Thunderstorm,Clear,60,2013-07-18 19:53:00
2:15 PM,73.4,46.4,38,30.53,10.0,East,11.5,18.4,N/A,Thunderstorm,Thunderstorm,80,2013-07-18 20:15:00
2:35 PM,73.4,48.2,41,30.53,10.0,ENE,10.4,20.7,N/A,,Scattered Clouds,60,2013-07-18 20:35:00
2:55 PM,73.4,44.6,36,30.52,10.0,East,15.0,23.0,N/A,Thunderstorm,Clear,80,2013-07-18 20:55:00
3:15 PM,71.6,44.6,38,30.52,10.0,ENE,12.7,20.7,N/A,Thunderstorm,Thunderstorm,70,2013-07-18 21:15:00
3:35 PM,71.6,44.6,38,30.52,10.0,East,15.0,20.7,N/A,Thunderstorm,Thunderstorm,80,2013-07-18 21:35:00
3:54 PM,71.6,46.4,41,30.52,10.0,East,13.8,20.7,N/A,Thunderstorm,Thunderstorm,80,2013-07-18 21:54:00
4:15 PM,71.6,44.6,38,30.51,10.0,ENE,13.8,19.6,N/A,Thunderstorm,Thunderstorm,70,2013-07-18 22:15:00
4:35 PM,69.8,42.8,38,30.50,10.0,East,11.5,17.3,N/A,Thunderstorm,Thunderstorm,80,2013-07-18 22:35:00
4:55 PM,69.8,42.8,38,30.50,10.0,East,9.2,-,N/A,Thunderstorm,Clear,80,2013-07-18 22:55:00
5:15 PM,68.0,41.0,37,30.50,10.0,East,9.2,17.3,N/A,,Clear,90,2013-07-18 23:15:00
5:34 PM,68.0,41.0,37,30.50,10.0,East,10.4,-,N/A,Thunderstorm,Thunderstorm,90,2013-07-18 23:34:00
5:55 PM,66.2,39.2,37,30.50,10.0,ENE,8.1,-,N/A,,Clear,60,2013-07-18 23:55:00
6:12 PM,66.2,41.0,40,30.50,10.0,East,8.1,-,N/A,,Clear,80,2013-07-19 00:12:00
6:35 PM,64.4,39.2,40,30.50,10.0,ENE,5.8,-,N/A,,Clear,70,2013-07-19 00:35:00
6:54 PM,62.6,39.2,42,30.51,10.0,Calm,Calm,-,N/A,,Clear,0,2013-07-19 00:54:00
7:15 PM,60.8,37.4,42,30.51,10.0,NE,4.6,-,N/A,,Clear,40,2013-07-19 01:15:00
7:35 PM,59.0,37.4,45,30.52,10.0,NE,3.5,-,N/A,Thunderstorm,Thunderstorm,40,2013-07-19 01:35:00
7:55 PM,59.0,37.4,45,30.52,10.0,Calm,Calm,-,N/A,,Scattered Clouds,0,2013-07-19 01:55:00
8:14 PM,60.8,33.8,36,30.53,10.0,NW,4.6,-,N/A,,Mostly Cloudy,320,2013-07-19 02:14:00
8:35 PM,57.2,41.0,55,30.53,10.0,NW,8.1,-,N/A,,Mostly Cloudy,310,2013-07-19 02:35:00
8:55 PM,57.2,41.0,55,30.53,10.0,NW,10.4,16.1,N/A,Thunderstorm,Scattered Clouds,320,2013-07-19 02:55:00
9:14 PM,55.4,41.0,58,30.53,10.0,NW,9.2,16.1,N/A,,Clear,320,2013-07-19 03:14:00
9:35 PM,53.6,41.0,62,30.54,10.0,NNW,13.8,21.9,N/A,,Mostly Cloudy,330,2013-07-19 03:35:00
9:55 PM,55.4,41.0,58,30.54,10.0,NW,10.4,21.9,N/A,,Scattered Clouds,320,2013-07-19 03:55:00
10:15 PM,55.4,41.0,58,30.55,10.0,NNW,8.1,-,N/A,,Clear,330,2013-07-19 04:15:00
10:35 PM,55.4,41.0,58,30.55,10.0,NW,5.8,-,N/A,,Scattered Clouds,320,2013-07-19 04:35:00
10:55 PM,53.6,42.8,67,30.55,10.0,West,4.6,17.3,N/A,,Scattered Clouds,270,2013-07-19 04:55:00
11:15 PM,53.6,42.8,67,30.55,10.0,WSW,3.5,-,N/A,,Mostly Cloudy,250,2013-07-19 05:15:00
11:34 PM,53.6,42.8,67,30.55,10.0,WNW,9.2,-,N/A,,Scattered Clouds,290,2013-07-19 05:34:00
11:55 PM,51.8,42.8,71,30.54,10.0,WNW,9.2,-,N/A,,Clear,300,2013-07-19 05:55:00